CZ-8 R/B

Last updated on Fri Apr 11 2025 00:02:03 GMT+0000 (Coordinated Universal Time)

1 63177U 25046U 25100.19767773 .00000177 00000+0 91300-4 0 9997 2 63177 88.9860 345.4413 0063614 29.0019 331.4675 14.09530771 14090
UTC large
Height (km)
Speed (km/s)
/
Latitude / Longitude
Inclination (degrees)
Orbital Period (minutes)
Azimuth
Elevation
Range (km)
Doppler Factor

Next 0 passes for location: London (51.5072 / 0.1276)

Sorry there are no passes over London.